Weather History for Bad Axe, MI

Change the Weather History Date:

Saturday, October 19, 2013

  Actual Average (KP58) Record (KP58)
Temperature  
Mean Temperature 44 °F -  
Max Temperature 49 °F 56 °F 72 °F (2000)
Min Temperature 40 °F 42 °F 35 °F (2002)
Degree Days  
Heating Degree Days 20    
Moisture  
Dew Point 41 °F    
Average Humidity 86    
Maximum Humidity 93    
Minimum Humidity 68    
Precipitation  
Precipitation 0.00 in - - ()
Sea Level Pressure  
Sea Level Pressure 29.76 in    
Wind  
Wind Speed 8 mph (SW)    
Max Wind Speed 14 mph    
Max Gust Speed 23 mph    
Visibility 10 miles    
Events Rain    
Averages and records for this station are not official NWS values.
T = Trace of Precipitation, MM = Missing Value Source: NWS Daily Summary

Daily Weather History Graph

Daily Weather History Graph

Search for Another Location

Airport:

Trip Planner

Search our weather history database for the weather conditions in past years. The results will help you decide how hot, cold, wet, or windy it might be!

Date:

Astronomy

Oct. 19, 2013 Rise Set
Actual Time 7:51 AM EDT 6:41 PM EDT
Civil Twilight 7:22 AM EDT 7:10 PM EDT
Nautical Twilight 6:48 AM EDT 7:43 PM EDT
Astronomical Twilight 6:15 AM EDT 8:17 PM EDT
Moon 7:06 PM EDT (10/19) 8:29 AM EDT (10/19)
Length of Visible Light 11h 48m
Length of Day
10h 49m
Waxing Gibbous, 99% of the Moon is Illuminated
Oct 19
Waxing Gibbous
Oct 26
Last Quarter
Nov 3
New
Nov 10
First Quarter
Nov 17
Full

Hourly Weather History & Observations

Time (EDT) Temp. Windchill Dew Point Humidity Pressure Visibility Wind Dir Wind Speed Gust Speed Precip Events Conditions
12:13 AM 46.0 °F 43.1 °F 43.0 °F 89% 29.85 in 10.0 mi SW 5.8 mph - N/A   Clear
12:34 AM 46.4 °F 42.9 °F 43.0 °F 88% 29.86 in 10.0 mi SW 6.9 mph - N/A   Clear
12:53 AM 46.6 °F - 43.2 °F 88% 29.85 in 10.0 mi SW 8.1 mph - N/A   Scattered Clouds
1:13 AM 46.8 °F - 43.2 °F 87% 29.84 in 10.0 mi WSW 8.1 mph - N/A   Scattered Clouds
1:33 AM 46.6 °F - 43.2 °F 88% 29.84 in 10.0 mi WSW 5.8 mph - N/A   Scattered Clouds
1:53 AM 46.4 °F 44.3 °F 42.8 °F 87% 29.83 in 10.0 mi SW 4.6 mph - N/A   Scattered Clouds
2:14 AM 46.0 °F 42.5 °F 42.8 °F 88% 29.83 in 10.0 mi SW 6.9 mph - N/A   Clear
2:33 AM 46.2 °F 42.7 °F 43.0 °F 88% 29.83 in 10.0 mi SW 6.9 mph - N/A   Scattered Clouds
2:53 AM 46.6 °F - 43.2 °F 88% 29.83 in 10.0 mi SW 8.1 mph - N/A   Overcast
3:14 AM 46.4 °F 41.9 °F 43.0 °F 88% 29.82 in 10.0 mi SW 9.2 mph - N/A   Mostly Cloudy
3:33 AM 46.4 °F 43.5 °F 42.8 °F 87% 29.82 in 10.0 mi SSW 5.8 mph - N/A   Overcast
3:53 AM 46.4 °F 42.9 °F 42.8 °F 87% 29.82 in 10.0 mi SW 6.9 mph - N/A   Overcast
4:14 AM 46.4 °F 43.5 °F 42.8 °F 87% 29.81 in 10.0 mi SW 5.8 mph - N/A   Mostly Cloudy
4:33 AM 46.4 °F 42.9 °F 42.8 °F 87% 29.81 in 10.0 mi SW 6.9 mph - N/A   Scattered Clouds
4:53 AM 46.0 °F 41.9 °F 42.8 °F 88% 29.81 in 10.0 mi SW 8.1 mph - N/A   Scattered Clouds
5:14 AM 46.0 °F 41.9 °F 43.0 °F 89% 29.81 in 10.0 mi SSW 8.1 mph - N/A   Mostly Cloudy
5:33 AM 46.0 °F 41.9 °F 42.8 °F 88% 29.81 in 10.0 mi SW 8.1 mph - N/A   Overcast
5:53 AM 45.9 °F 41.7 °F 42.8 °F 89% 29.80 in 10.0 mi SSW 8.1 mph - N/A   Overcast
6:14 AM 45.7 °F 41.5 °F 42.8 °F 90% 29.79 in 10.0 mi SSW 8.1 mph - N/A   Overcast
6:33 AM 45.5 °F 41.3 °F 42.8 °F 90% 29.78 in 10.0 mi SSW 8.1 mph - N/A   Overcast
6:53 AM 45.5 °F 41.8 °F 42.6 °F 90% 29.78 in 10.0 mi SSW 6.9 mph - N/A   Overcast
7:14 AM 45.5 °F 41.3 °F 42.6 °F 90% 29.78 in 10.0 mi SSW 8.1 mph - N/A   Overcast
7:33 AM 45.9 °F 41.7 °F 42.8 °F 89% 29.77 in 10.0 mi SSW 8.1 mph - N/A   Overcast
7:53 AM 45.9 °F 41.7 °F 42.8 °F 89% 29.77 in 10.0 mi SSW 8.1 mph - N/A   Overcast
8:14 AM 45.5 °F 41.3 °F 42.8 °F 90% 29.77 in 10.0 mi SSW 8.1 mph - N/A   Overcast
8:33 AM 45.5 °F 40.8 °F 42.6 °F 90% 29.77 in 10.0 mi SSW 9.2 mph - N/A   Overcast
8:53 AM 45.7 °F 40.6 °F 42.8 °F 90% 29.77 in 10.0 mi SSW 10.4 mph - N/A   Overcast
9:53 AM 46.4 °F 41.5 °F 42.8 °F 87% 29.77 in 10.0 mi SSW 10.4 mph 18.4 mph N/A   Overcast
10:14 AM 46.4 °F 40.7 °F 43.0 °F 88% 29.77 in 10.0 mi SSW 12.7 mph - N/A   Overcast
10:33 AM 46.4 °F 40.4 °F 43.2 °F 88% 29.76 in 10.0 mi SW 13.8 mph 19.6 mph N/A   Overcast
10:54 AM 46.8 °F - 42.8 °F 86% 29.75 in 10.0 mi SSW 9.2 mph 17.3 mph N/A   Overcast
11:14 AM 46.8 °F - 42.8 °F 86% 29.74 in 10.0 mi SW 12.7 mph 17.3 mph N/A   Overcast
11:33 AM 47.7 °F - 43.3 °F 85% 29.73 in 10.0 mi SW 11.5 mph 17.3 mph N/A   Overcast
11:54 AM 47.8 °F - 42.3 °F 81% 29.72 in 10.0 mi WSW 12.7 mph 18.4 mph N/A   Overcast
12:14 PM 48.4 °F - 42.3 °F 79% 29.72 in 10.0 mi WSW 13.8 mph 19.6 mph N/A   Overcast
12:33 PM 48.6 °F - 42.1 °F 78% 29.72 in 10.0 mi WSW 11.5 mph 16.1 mph N/A   Overcast
12:54 PM 48.4 °F - 41.7 °F 78% 29.71 in 10.0 mi WSW 9.2 mph 17.3 mph N/A   Overcast
1:14 PM 48.6 °F - 42.3 °F 79% 29.71 in 10.0 mi WSW 8.1 mph - N/A   Overcast
1:33 PM 48.2 °F - 42.1 °F 79% 29.70 in 7.0 mi West 11.5 mph 17.3 mph N/A   Overcast
1:54 PM 45.5 °F 39.2 °F 42.6 °F 90% 29.70 in 4.0 mi West 13.8 mph 18.4 mph N/A   Unknown
2:14 PM 45.1 °F 39.5 °F 42.8 °F 91% 29.70 in 5.0 mi West 11.5 mph 17.3 mph N/A   Overcast
2:33 PM 45.7 °F 41.5 °F 43.3 °F 92% 29.70 in 10.0 mi WNW 8.1 mph 11.5 mph N/A Rain Light Rain
2:54 PM 46.9 °F - 44.4 °F 91% 29.70 in 10.0 mi West 6.9 mph - N/A   Overcast
3:14 PM 47.3 °F - 43.3 °F 86% 29.70 in 10.0 mi WNW 11.5 mph 16.1 mph N/A   Overcast
3:33 PM 47.5 °F - 42.4 °F 83% 29.70 in 10.0 mi West 11.5 mph 17.3 mph N/A   Overcast
3:54 PM 47.7 °F - 41.4 °F 79% 29.70 in 10.0 mi WNW 9.2 mph - N/A   Overcast
4:14 PM 49.1 °F - 40.5 °F 72% 29.70 in 10.0 mi WNW 11.5 mph 16.1 mph N/A   Mostly Cloudy
4:33 PM 47.7 °F - 39.4 °F 73% 29.70 in 10.0 mi WNW 9.2 mph - N/A   Mostly Cloudy
4:54 PM 48.6 °F - 39.0 °F 70% 29.70 in 10.0 mi West 11.5 mph - N/A   Mostly Cloudy
5:13 PM 49.5 °F - 39.4 °F 68% 29.70 in 10.0 mi WNW 8.1 mph - N/A   Scattered Clouds
5:34 PM 45.7 °F 41.0 °F 36.9 °F 71% 29.71 in 10.0 mi NW 9.2 mph 23.0 mph N/A   Mostly Cloudy
5:54 PM 45.5 °F 43.2 °F 37.0 °F 72% 29.72 in 10.0 mi NW 4.6 mph - N/A   Mostly Cloudy
6:13 PM 45.0 °F 40.6 °F 37.9 °F 76% 29.72 in 10.0 mi NW 8.1 mph - N/A   Mostly Cloudy
6:34 PM 44.6 °F 43.1 °F 39.7 °F 83% 29.73 in 10.0 mi SW 3.5 mph - N/A Rain Light Rain
6:54 PM 43.9 °F 41.3 °F 39.6 °F 85% 29.73 in 10.0 mi SSW 4.6 mph - N/A   Overcast
7:13 PM 42.6 °F - 39.4 °F 88% 29.74 in 10.0 mi Calm Calm - N/A   Mostly Cloudy
7:34 PM 40.6 °F - 38.3 °F 91% 29.74 in 10.0 mi Calm Calm - N/A   Overcast
7:54 PM 42.4 °F 37.5 °F 40.6 °F 93% 29.76 in 10.0 mi SSW 8.1 mph - N/A   Overcast
8:13 PM 43.3 °F - 40.3 °F 89% 29.75 in 10.0 mi Calm Calm - N/A Rain Light Rain
8:34 PM 41.5 °F - 38.8 °F 90% 29.76 in 10.0 mi Calm Calm - N/A   Mostly Cloudy
8:54 PM 41.0 °F - 38.5 °F 91% 29.76 in 10.0 mi Calm Calm - N/A   Mostly Cloudy
9:13 PM 41.0 °F 39.0 °F 39.0 °F 93% 29.77 in 10.0 mi SW 3.5 mph - N/A   Overcast
9:34 PM 41.0 °F 38.0 °F 38.1 °F 89% 29.77 in 10.0 mi SW 4.6 mph - N/A   Mostly Cloudy
9:54 PM 40.3 °F 37.1 °F 37.6 °F 90% 29.78 in 10.0 mi SW 4.6 mph - N/A   Scattered Clouds
10:13 PM 40.8 °F 38.8 °F 38.3 °F 91% 29.78 in 10.0 mi WSW 3.5 mph - N/A   Clear
10:34 PM 41.0 °F 38.0 °F 37.9 °F 89% 29.78 in 10.0 mi WSW 4.6 mph - N/A   Clear
10:54 PM 40.1 °F 36.1 °F 37.4 °F 90% 29.78 in 10.0 mi WSW 5.8 mph - N/A   Scattered Clouds
11:13 PM 41.0 °F 35.2 °F 37.6 °F 88% 29.78 in 10.0 mi SW 9.2 mph - N/A   Scattered Clouds
11:34 PM 41.0 °F 35.8 °F 37.2 °F 86% 29.78 in 10.0 mi SW 8.1 mph - N/A   Scattered Clouds
11:53 PM 40.5 °F 35.8 °F 37.0 °F 88% 29.78 in 10.0 mi SW 6.9 mph - N/A   Clear